Location: Torch Lake Township
(45.0753°N, 85.3586°W)
Time: 21:48:27
(UTC-04:00)

Amateur Radio Satellites - All Passes

Search period start: 31 August 2016 21:18
Search period end: 01 September 2016 21:18
Location: Torch Lake Township, 45.0753°N, 85.3586°W

Satellite Date Start Highest point End Downlink Frequencies (MHz)
Time Altitude Azimuth
CUBEBUG 2 31 Aug 21:22:23 21:27:01 79° 77° (ENE) 21:31:33 437.445
PRISM 31 Aug 21:26:18 21:28:24 13° 90° (E) 21:30:31 437.425
GONETS M04 31 Aug 21:29:24 21:33:49 14° 52° (NE) 21:38:13
DOVE 4 31 Aug 21:31:40 21:33:09 11° 275° (W) 21:34:38 437.250
CINEMA 3 31 Aug 21:35:53 21:40:05 27° 266° (W) 21:44:14 145.822/145.860
HO-68 31 Aug 21:38:32 21:45:13 40° 263° (W) 21:51:56 435.675
DELFI C3 31 Aug 21:51:35 21:54:57 28° 69° (ENE) 21:58:22 145.870
PCSat 31 Aug 22:01:40 22:06:25 32° 249° (WSW) 22:11:08 145.827
O/OREOS (USA 219) 31 Aug 22:03:09 22:04:37 11° 44° (NE) 22:06:07 437.305
STRAND 1 31 Aug 22:04:53 22:09:28 34° 294° (WNW) 22:14:02 437.568
SEEDS 31 Aug 22:09:48 22:12:39 18° 268° (W) 22:15:30 437.485
Oscar 11 31 Aug 22:13:08 22:17:24 69° 258° (WSW) 22:21:43 145.826/435.025
AIST 1 31 Aug 22:18:37 22:20:56 14° 276° (W) 22:23:14
AUBIESAT-1 31 Aug 22:22:05 22:24:32 14° 55° (NE) 22:26:57 437.475
SO-50 31 Aug 22:22:34 22:24:25 12° 108° (ESE) 22:26:15 436.795
FUNcube-1 31 Aug 22:26:57 22:31:16 53° 260° (W) 22:35:29 145.935
AAUSAT CUBESAT 2 31 Aug 22:27:20 22:30:22 20° 267° (W) 22:33:26 437.432
M-CUBED/EXP-1 PRIME 31 Aug 22:30:40 22:34:07 21° 58° (ENE) 22:37:31 437.505
AIST 2 31 Aug 22:33:30 22:35:03 12° 251° (WSW) 22:36:35 435.215
COMPASS 1 31 Aug 22:41:49 22:43:22 12° 271° (W) 22:44:53 437.405
UWE-3 31 Aug 22:48:11 22:51:38 21° 267° (W) 22:55:02 435.000/436.395/437.385
ZACube-1 31 Aug 22:51:45 22:55:33 28° 265° (W) 22:59:17 437.345
HUMSAT D 31 Aug 22:56:51 23:00:59 75° 75° (ENE) 23:05:05 437.325/437.525
PRISM 31 Aug 22:59:57 23:04:05 58° 287° (WNW) 23:08:12 437.425
CUBEBUG 2 31 Aug 23:02:36 23:04:09 11° 272° (W) 23:05:41 437.445
TIGRISAT 31 Aug 23:07:49 23:10:44 18° 92° (E) 23:13:39 435.000
AISAT 31 Aug 23:07:57 23:09:38 12° 58° (ENE) 23:11:18 437.250
Cosmos 2499 31 Aug 23:14:59 23:21:34 40° 72° (ENE) 23:28:14 435.465 / 435.565
ESTCUBE 1 31 Aug 23:16:45 23:20:20 24° 65° (ENE) 23:23:55 437.505/2401.250
RS-15 31 Aug 23:21:57 23:23:20 10° 90° (E) 23:24:42 29.354- 29.394
GONETS M04 31 Aug 23:24:01 23:32:50 62° 77° (ENE) 23:41:33
DELFI C3 31 Aug 23:26:33 23:29:48 24° 266° (W) 23:33:03 145.870
UNISAT 6 31 Aug 23:37:13 23:41:14 38° 98° (E) 23:45:13 437.425
SPROUT 31 Aug 23:40:16 23:41:50 12° 59° (ENE) 23:43:23 437.525
O/OREOS (USA 219) 31 Aug 23:40:17 23:44:55 72° 64° (ENE) 23:49:30 437.305
CUSAT 1 31 Aug 23:41:26 23:44:30 39° 93° (E) 23:48:26 437.405
CUBEBUG 1 31 Aug 23:42:05 23:45:49 28° 67° (ENE) 23:49:35 437.445
VELOX 1 31 Aug 23:52:13 23:56:03 29° 67° (ENE) 23:59:55 145.980
AUBIESAT-1 31 Aug 23:53:44 23:58:23 84° 249° (WSW) 00:02:58 437.475
DX 1 31 Aug 23:54:08 23:57:28 22° 64° (ENE) 00:00:50 434.975-435.025
SO-50 31 Aug 23:59:18 00:04:11 87° 122° (ESE) 00:09:00 436.795
M-CUBED/EXP-1 PRIME 01 Sep 00:03:36 00:08:14 57° 254° (WSW) 00:12:50 437.505
NANOSAT C BR1 01 Sep 00:04:58 00:05:22 10° 88° (E) 00:05:45 145.865
ANTELSAT 01 Sep 00:13:50 00:18:08 86° 284° (WNW) 00:22:23 437.575/2403.000
UKube-1 01 Sep 00:24:54 00:28:47 33° 68° (ENE) 00:32:42 .
50 SAT 01 Sep 00:30:35 00:34:07 68° 75° (ENE) 00:37:42 437.505
HUMSAT D 01 Sep 00:36:59 00:37:06 10° 272° (W) 00:37:13 437.325/437.525
AISAT 01 Sep 00:40:56 00:45:25 87° 257° (WSW) 00:49:56 437.250
TIGRISAT 01 Sep 00:43:37 00:47:40 44° 290° (WNW) 00:51:42 435.000
QB50P1 01 Sep 00:48:56 00:52:46 33° 97° (E) 00:56:34 145.935-145.965
ESTCUBE 1 01 Sep 00:52:45 00:56:56 38° 262° (W) 01:01:10 437.505/2401.250
POPSAT HIP 1 01 Sep 00:59:18 01:03:19 42° 98° (E) 01:07:18 437.405
PHONESAT 2.4 01 Sep 01:00:37 01:02:31 15° 158° (SSE) 01:04:24 2401.200-2431.200
JAS-2 01 Sep 01:01:47 01:08:09 35° 95° (E) 01:14:58 435.910
Cosmos 2499 01 Sep 01:08:14 01:14:37 39° 272° (W) 01:21:08 435.465 / 435.565
SPROUT 01 Sep 01:12:49 01:17:07 82° 255° (WSW) 01:21:28 437.525
UNISAT 6 01 Sep 01:14:29 01:17:44 21° 295° (WNW) 01:20:58 437.425
TISAT 1 01 Sep 01:15:29 01:18:58 25° 66° (ENE) 01:22:29 437.305
CUBEBUG 1 01 Sep 01:18:04 01:22:00 31° 264° (W) 01:26:00 437.445
DUCHIFAT 1 01 Sep 01:21:12 01:25:23 66° 102° (ESE) 01:29:32 145.980
RS-15 01 Sep 01:21:33 01:32:34 54° 112° (ESE) 01:44:09 29.354- 29.394
O/OREOS (USA 219) 01 Sep 01:21:36 01:23:42 13° 262° (W) 01:25:47 437.305
GONETS M04 01 Sep 01:21:37 01:29:04 32° 278° (W) 01:36:31
DANDE 01 Sep 01:23:37 01:26:07 32° 288° (WNW) 01:29:02 436.750
CUSAT 1 01 Sep 01:25:07 01:27:06 14° 301° (WNW) 01:29:19 437.405
VELOX 1 01 Sep 01:28:31 01:32:27 30° 264° (W) 01:36:24 145.980
DX 1 01 Sep 01:29:17 01:33:25 41° 261° (W) 01:37:35 434.975-435.025
SWISSCUBE 01 Sep 01:30:00 01:30:43 10° 55° (NE) 01:31:26 437.505
QB50P2 01 Sep 01:30:49 01:35:04 80° 286° (WNW) 01:39:16 145.880/145.840
AUBIESAT-1 01 Sep 01:33:06 01:33:24 10° 267° (W) 01:33:41 437.475
POLYITAN 1 01 Sep 01:33:20 01:37:33 79° 285° (WNW) 01:41:44 437.675
NANOSAT C BR1 01 Sep 01:37:25 01:41:38 77° 285° (WNW) 01:45:48 145.865
SO-50 01 Sep 01:41:46 01:45:16 20° 324° (NW) 01:48:46 436.795
BEESAT 01 Sep 01:44:55 01:47:08 13° 58° (ENE) 01:49:21 436.000
BUGSAT 1 01 Sep 01:56:43 02:00:51 70° 102° (ESE) 02:04:53 437.445
UKube-1 01 Sep 02:01:18 02:04:52 25° 265° (W) 02:08:27 .
QB50P1 01 Sep 02:25:00 02:28:24 24° 294° (WNW) 02:31:46 145.935-145.965
ITUPSAT 1 01 Sep 02:33:05 02:37:21 34° 67° (ENE) 02:41:39 437.325
PHONESAT 2.4 01 Sep 02:35:38 02:38:21 31° 174° (S) 02:41:05 2401.200-2431.200
POPSAT HIP 1 01 Sep 02:35:47 02:38:49 20° 296° (WNW) 02:41:50 437.405
Oscar 19 01 Sep 02:36:53 02:41:38 35° 97° (E) 02:46:21 437.125/150
JAS-2 01 Sep 02:46:36 02:53:18 53° 291° (WNW) 03:00:38 435.910
Gurwin Techsat 1B 01 Sep 02:46:50 02:50:49 21° 92° (E) 02:54:46 435.225
TISAT 1 01 Sep 02:50:41 02:54:30 32° 263° (W) 02:58:20 437.305
DUCHIFAT 1 01 Sep 02:58:30 03:00:33 13° 299° (WNW) 03:02:35 145.980
SWISSCUBE 01 Sep 03:02:55 03:07:40 74° 73° (ENE) 03:12:25 437.505
BEESAT 01 Sep 03:19:28 03:24:14 86° 254° (WSW) 03:29:01 436.000
RS-15 01 Sep 03:33:38 03:45:07 57° 318° (NW) 03:57:11 29.354- 29.394
BUGSAT 1 01 Sep 03:33:55 03:35:39 12° 300° (WNW) 03:37:23 437.445
KKS-1 01 Sep 03:47:12 03:50:45 23° 65° (ENE) 03:54:19 437.445
AO-85 01 Sep 04:01:06 04:03:20 13° 108° (ESE) 04:05:30 145.980
ITAMSAT 1 01 Sep 04:01:44 04:06:16 30° 95° (E) 04:10:45 435.822/435.867
STARS 01 Sep 04:10:02 04:13:17 20° 63° (ENE) 04:16:33 437.465
ITUPSAT 1 01 Sep 04:11:07 04:15:13 29° 265° (W) 04:19:21 437.325
PHONESAT 2.4 01 Sep 04:11:42 04:14:20 27° 191° (S) 04:16:57 2401.200-2431.200
Oscar 19 01 Sep 04:16:16 04:20:54 33° 294° (WNW) 04:25:30 437.125/150
Gurwin Techsat 1B 01 Sep 04:25:55 04:31:07 56° 289° (WNW) 04:36:17 435.225
CUBESAT XI-V 01 Sep 04:27:03 04:28:26 11° 57° (ENE) 04:29:49 437.345
MOZHAYETS 4 01 Sep 04:27:09 04:31:41 71° 75° (ENE) 04:36:14
JAS-2 01 Sep 04:34:41 04:37:02 12° 310° (NW) 04:39:26 435.910
AO-7 01 Sep 04:41:02 04:48:33 36° 97° (E) 04:55:57 29.400- 29.500
SWISSCUBE 01 Sep 04:43:46 04:45:59 13° 271° (W) 04:48:13 437.505
Cosmos 2491 01 Sep 05:00:42 05:08:56 41° 70° (ENE) 05:17:07 435.465 / 435.565
KKS-1 01 Sep 05:22:54 05:27:06 39° 262° (W) 05:31:20 437.445
AO-85 01 Sep 05:37:52 05:43:10 83° 124° (ESE) 05:48:08 145.980
ITAMSAT 1 01 Sep 05:41:01 05:45:47 38° 293° (WNW) 05:50:33 435.822/435.867
STARS 01 Sep 05:45:05 05:49:20 45° 261° (W) 05:53:38 437.465
PHONESAT 2.4 01 Sep 05:49:12 05:50:04 11° 207° (SSW) 05:50:58 2401.200-2431.200
RS-15 01 Sep 05:50:46 06:01:05 31° 350° (N) 06:11:38 29.354- 29.394
CUBESAT XI-V 01 Sep 06:00:26 06:05:03 85° 73° (ENE) 06:09:43 437.345
MOZHAYETS 4 01 Sep 06:07:20 06:09:21 13° 271° (W) 06:11:23
YUBILEINY 01 Sep 06:15:16 06:23:22 43° 87° (E) 06:31:29 435.215
GOMX 1 01 Sep 06:30:43 06:31:58 11° 84° (E) 06:33:11 467.674
AO-7 01 Sep 06:33:34 06:41:38 57° 297° (WNW) 06:49:39 29.400- 29.500
HORYU 2 01 Sep 06:33:39 06:37:56 47° 100° (E) 06:42:11 437.375
SO-50 01 Sep 06:49:13 06:52:57 23° 38° (NE) 06:56:35 436.795
Cosmos 2491 01 Sep 06:57:34 07:05:58 50° 271° (W) 07:14:21 435.465 / 435.565
NOAA 18 01 Sep 07:00:36 07:04:05 17° 90° (E) 07:07:32 137.9125
NOAA 15 01 Sep 07:02:33 07:06:56 26° 94° (E) 07:11:18 137.62
Cubesat XI-IV 01 Sep 07:07:39 07:11:46 22° 93° (E) 07:15:52 437.490
Cosmos 2504 01 Sep 07:12:02 07:19:15 35° 86° (E) 07:26:03 435.465 / 435.565
BRITE-PL 01 Sep 07:16:53 07:22:34 64° 100° (E) 07:28:02 437.365/2234.400
CUTE-I 01 Sep 07:17:36 07:22:07 28° 94° (E) 07:26:37 437.470
AO-85 01 Sep 07:20:17 07:24:11 21° 322° (NW) 07:27:53 145.980
LilacSat-2 01 Sep 07:29:38 07:33:02 31° 97° (E) 07:36:25 437.200
CUBESAT XI-V 01 Sep 07:41:58 07:43:04 11° 273° (W) 07:44:10 437.345
STRAND 1 01 Sep 07:43:22 07:48:21 57° 71° (ENE) 07:53:21 437.568
DOVE 4 01 Sep 07:47:26 07:51:31 25° 92° (E) 07:55:24 437.250
GOMX 1 01 Sep 08:05:32 08:10:57 82° 102° (ESE) 08:16:00 467.674
RS-15 01 Sep 08:07:07 08:18:14 37° 24° (NNE) 08:29:22 29.354- 29.394
ISS 01 Sep 08:09:44 08:12:50 40° 143° (SE) 08:15:57 145.825
HORYU 2 01 Sep 08:11:01 08:14:10 19° 297° (WNW) 08:17:18 437.375
YUBILEINY 01 Sep 08:11:41 08:20:05 47° 288° (WNW) 08:28:33 435.215
PRISM 01 Sep 08:18:02 08:20:10 14° 61° (ENE) 08:22:17 437.425
AO-7 01 Sep 08:28:15 08:32:40 16° 319° (NW) 08:37:05 29.400- 29.500
SO-50 01 Sep 08:29:15 08:33:49 61° 239° (WSW) 08:38:14 436.795
CUSAT 1 01 Sep 08:30:49 08:32:25 11° 57° (ENE) 08:34:02 437.405
NOAA 18 01 Sep 08:39:50 08:45:17 71° 288° (WNW) 08:50:42 137.9125
NOAA 15 01 Sep 08:41:50 08:46:55 46° 291° (WNW) 08:51:57 137.62
CANX-2 01 Sep 08:46:54 08:50:15 22° 93° (E) 08:53:35 2200.000
Cubesat XI-IV 01 Sep 08:46:59 08:52:09 52° 290° (WNW) 08:57:17 437.490
CUTE 1.7 + AOD 2 01 Sep 08:51:59 08:55:18 22° 93° (E) 08:58:37 437.475
BRITE-PL 01 Sep 08:56:13 09:00:30 22° 299° (WNW) 09:04:42 437.365/2234.400
CUTE-I 01 Sep 08:57:18 09:02:18 43° 292° (WNW) 09:07:17 437.470
HO-68 01 Sep 09:03:28 09:10:02 37° 97° (E) 09:16:34 435.675
LilacSat-2 01 Sep 09:04:20 09:07:09 20° 294° (WNW) 09:09:57 437.200
Cosmos 2504 01 Sep 09:04:22 09:12:22 52° 284° (WNW) 09:19:52 435.465 / 435.565
AIST 1 01 Sep 09:11:00 09:14:48 30° 90° (E) 09:18:38
CUBEBUG 2 01 Sep 09:13:05 09:15:04 13° 89° (E) 09:17:02 437.445
STRAND 1 01 Sep 09:24:17 09:27:54 19° 269° (W) 09:31:30 437.568
DOVE 4 01 Sep 09:24:44 09:29:22 39° 291° (WNW) 09:33:44 437.250
CINEMA 3 01 Sep 09:27:58 09:32:26 69° 101° (E) 09:36:41 145.822/145.860
BEESAT 2 01 Sep 09:34:59 09:38:28 31° 116° (ESE) 09:41:59 435.950
ANTELSAT 01 Sep 09:40:27 09:42:29 13° 60° (ENE) 09:44:31 437.575/2403.000
BEESAT 3 01 Sep 09:42:07 09:46:00 71° 123° (ESE) 09:49:57 437.485
GOMX 1 01 Sep 09:45:04 09:48:16 16° 302° (WNW) 09:51:22 467.674
ISS 01 Sep 09:46:12 09:49:20 40° 341° (NNW) 09:52:28 145.825
SEEDS 01 Sep 09:49:51 09:54:03 65° 100° (E) 09:58:16 437.485
PRISM 01 Sep 09:50:54 09:54:57 63° 258° (WSW) 09:59:05 437.425
Oscar 11 01 Sep 09:59:06 10:02:09 19° 92° (E) 10:05:12 145.826/435.025
AAUSAT CUBESAT 2 01 Sep 10:06:06 10:10:13 53° 100° (E) 10:14:18 437.432
TIGRISAT 01 Sep 10:08:10 10:11:40 22° 65° (ENE) 10:15:07 435.000
CUSAT 1 01 Sep 10:09:06 10:15:42 52° 75° (ENE) 10:23:19 437.405
DANDE 01 Sep 10:13:06 10:17:46 24° 70° (ENE) 10:23:18 436.750
FUNcube-1 01 Sep 10:13:21 10:16:41 23° 94° (E) 10:20:00 145.935
YUBILEINY 01 Sep 10:19:20 10:19:43 10° 314° (NW) 10:20:05 435.215
COMPASS 1 01 Sep 10:19:20 10:23:33 86° 284° (WNW) 10:27:45 437.405
RS-15 01 Sep 10:20:27 10:32:55 82° 53° (NE) 10:45:10 29.354- 29.394
CANX-2 01 Sep 10:22:18 10:26:11 35° 290° (WNW) 10:30:05 2200.000
NOAA 18 01 Sep 10:22:55 10:24:59 12° 307° (NW) 10:27:03 137.9125
CUTE 1.7 + AOD 2 01 Sep 10:27:21 10:31:15 36° 290° (WNW) 10:35:09 437.475
UWE-3 01 Sep 10:34:30 10:38:40 67° 102° (ESE) 10:42:46 435.000/436.395/437.385
GONETS M04 01 Sep 10:37:15 10:40:45 13° 71° (ENE) 10:44:15
ZACube-1 01 Sep 10:37:20 10:41:20 45° 99° (E) 10:45:19 437.345
UNISAT 6 01 Sep 10:37:34 10:41:53 45° 71° (ENE) 10:46:09 437.425
CUBEBUG 2 01 Sep 10:47:58 10:52:07 58° 287° (WNW) 10:56:10 437.445
AIST 1 01 Sep 10:48:41 10:52:22 26° 288° (WNW) 10:56:07
HO-68 01 Sep 10:51:06 10:57:53 48° 296° (WNW) 11:04:39 435.675
QB50P2 01 Sep 10:52:43 10:54:01 11° 59° (ENE) 10:55:19 145.880/145.840
POLYITAN 1 01 Sep 10:55:09 10:56:30 11° 59° (ENE) 10:57:52 437.675
NANOSAT C BR1 01 Sep 10:58:42 11:00:08 12° 59° (ENE) 11:01:34 145.865
DELFI C3 01 Sep 11:01:16 11:04:58 34° 97° (E) 11:08:39 145.870
PCSat 01 Sep 11:02:29 11:06:49 25° 108° (ESE) 11:11:09 145.827
CINEMA 3 01 Sep 11:06:45 11:08:58 14° 300° (WNW) 11:11:09 145.822/145.860
Cosmos 2504 01 Sep 11:06:58 11:07:45 10° 308° (NW) 11:08:32 435.465 / 435.565
BEESAT 2 01 Sep 11:12:45 11:16:16 30° 315° (NW) 11:19:50 435.950
ANTELSAT 01 Sep 11:14:04 11:18:37 79° 257° (WSW) 11:23:06 437.575/2403.000
JAS-2 01 Sep 11:19:30 11:22:35 15° 54° (NE) 11:25:49 435.910
BEESAT 3 01 Sep 11:21:30 11:24:08 17° 322° (NW) 11:26:46 437.485
ISS 01 Sep 11:23:34 11:26:21 25° 1° (N) 11:29:09 145.825
SEEDS 01 Sep 11:27:06 11:29:16 14° 298° (WNW) 11:31:24 437.485
Oscar 11 01 Sep 11:34:23 11:38:30 44° 289° (WNW) 11:42:36 145.826/435.025
AAUSAT CUBESAT 2 01 Sep 11:42:44 11:45:17 16° 297° (WNW) 11:47:51 437.432
QB50P1 01 Sep 11:43:06 11:46:55 33° 69° (ENE) 11:50:45 145.935-145.965
TIGRISAT 01 Sep 11:43:50 11:48:08 41° 262° (W) 11:52:22 435.000
FUNcube-1 01 Sep 11:49:18 11:52:59 32° 291° (WNW) 11:56:39 145.935
CUSAT 1 01 Sep 11:51:24 11:57:35 36° 269° (W) 12:04:34 437.405
POPSAT HIP 1 01 Sep 11:53:25 11:57:25 41° 70° (ENE) 12:01:26 437.405
Cosmos 2499 01 Sep 11:54:19 12:01:03 32° 86° (E) 12:07:24 435.465 / 435.565
DANDE 01 Sep 11:54:54 12:00:43 67° 262° (W) 12:08:09 436.750
UWE-3 01 Sep 12:12:42 12:14:36 13° 299° (WNW) 12:16:28 435.000/436.395/437.385
HUMSAT D 01 Sep 12:13:36 12:17:42 75° 285° (WNW) 12:21:48 437.325/437.525
ZACube-1 01 Sep 12:14:31 12:17:19 18° 296° (WNW) 12:20:06 437.345
DUCHIFAT 1 01 Sep 12:14:33 12:18:45 62° 74° (ENE) 12:22:57 145.980
UNISAT 6 01 Sep 12:15:29 12:18:48 20° 267° (W) 12:22:05 437.425
QB50P2 01 Sep 12:24:54 12:29:11 85° 258° (WSW) 12:33:28 145.880/145.840
GONETS M04 01 Sep 12:27:05 12:35:42 66° 92° (E) 12:44:26
POLYITAN 1 01 Sep 12:27:23 12:31:40 84° 257° (WSW) 12:35:57 437.675
AO-85 01 Sep 12:28:37 12:31:49 19° 36° (NE) 12:34:52 145.980
AIST 2 01 Sep 12:30:06 12:34:13 86° 124° (SE) 12:38:22 435.215
AISAT 01 Sep 12:30:23 12:33:04 16° 91° (E) 12:35:44 437.250
NANOSAT C BR1 01 Sep 12:30:58 12:35:14 82° 258° (WSW) 12:39:31 145.865
RS-15 01 Sep 12:33:58 12:44:12 33° 257° (WSW) 12:54:18 29.354- 29.394
DELFI C3 01 Sep 12:36:33 12:39:37 21° 294° (WNW) 12:42:40 145.870
HO-68 01 Sep 12:42:11 12:43:54 11° 317° (NW) 12:45:36 435.675
ESTCUBE 1 01 Sep 12:42:52 12:47:06 37° 97° (E) 12:51:19 437.505/2401.250
PCSat 01 Sep 12:44:33 12:49:51 54° 307° (NW) 12:55:12 145.827
BUGSAT 1 01 Sep 12:47:48 12:51:59 62° 74° (ENE) 12:56:11 437.445
SPROUT 01 Sep 12:58:06 13:00:32 15° 90° (E) 13:02:57 437.525
ISS 01 Sep 13:00:12 13:03:23 43° 21° (NNE) 13:06:32 145.825
JAS-2 01 Sep 13:01:27 13:06:44 88° 255° (WSW) 13:12:35 435.910
CUBEBUG 1 01 Sep 13:04:08 13:08:19 40° 98° (E) 13:12:27 437.445
AUBIESAT-1 01 Sep 13:05:42 13:09:32 48° 105° (ESE) 13:13:03 437.475
DX 1 01 Sep 13:15:28 13:19:16 28° 96° (E) 13:23:02 434.975-435.025
VELOX 1 01 Sep 13:15:58 13:20:15 42° 99° (E) 13:24:28 145.980
M-CUBED/EXP-1 PRIME 01 Sep 13:16:00 13:20:03 82° 106° (ESE) 13:23:44 437.505
QB50P1 01 Sep 13:19:14 13:22:44 24° 266° (W) 13:26:15 145.935-145.965
50 SAT 01 Sep 13:30:05 13:33:43 64° 101° (E) 13:37:22 437.505
POPSAT HIP 1 01 Sep 13:30:15 13:33:22 20° 267° (W) 13:36:30 437.405
DANDE 01 Sep 13:41:03 13:42:54 11° 276° (W) 13:44:53 436.750
UKube-1 01 Sep 13:45:25 13:49:36 45° 99° (E) 13:53:45 .
Cosmos 2499 01 Sep 13:46:06 13:53:50 54° 284° (WNW) 14:01:04 435.465 / 435.565
DUCHIFAT 1 01 Sep 13:52:52 13:54:51 13° 270° (W) 13:56:50 145.980
AO-7 01 Sep 13:54:17 13:58:52 16° 42° (NE) 14:03:27 29.400- 29.500
O/OREOS (USA 219) 01 Sep 13:54:26 13:58:50 56° 109° (ESE) 14:03:18 437.305
Oscar 19 01 Sep 13:55:28 14:00:33 62° 72° (ENE) 14:05:41 437.125/150
AISAT 01 Sep 14:05:30 14:09:54 56° 288° (WNW) 14:14:14 437.250
AO-85 01 Sep 14:08:30 14:12:46 66° 238° (WSW) 14:16:42 145.980
Gurwin Techsat 1B 01 Sep 14:09:33 14:14:28 41° 68° (ENE) 14:19:26 435.225
AIST 2 01 Sep 14:10:41 14:13:17 16° 324° (NW) 14:15:53 435.215
ESTCUBE 1 01 Sep 14:20:02 14:23:44 25° 295° (WNW) 14:27:26 437.505/2401.250
GONETS M04 01 Sep 14:25:41 14:33:12 31° 295° (WNW) 14:40:50
BUGSAT 1 01 Sep 14:25:45 14:27:46 13° 270° (W) 14:29:46 437.445
PCSat 01 Sep 14:31:45 14:34:31 14° 329° (NNW) 14:37:18 145.827
TISAT 1 01 Sep 14:32:16 14:36:03 32° 97° (E) 14:39:48 437.305
SPROUT 01 Sep 14:32:38 14:36:49 54° 288° (WNW) 14:40:58 437.525
ISS 01 Sep 14:36:46 14:39:48 35° 219° (SW) 14:42:50 145.825
CUBEBUG 1 01 Sep 14:40:56 14:44:22 22° 295° (WNW) 14:47:46 437.445
AUBIESAT-1 01 Sep 14:41:07 14:43:34 16° 304° (NW) 14:45:54 437.475
JAS-2 01 Sep 14:51:14 14:52:56 11° 276° (W) 14:54:41 435.910
DX 1 01 Sep 14:51:35 14:55:25 30° 293° (WNW) 14:59:15 434.975-435.025
M-CUBED/EXP-1 PRIME 01 Sep 14:52:37 14:53:51 11° 308° (NW) 14:55:03 437.505
VELOX 1 01 Sep 14:53:02 14:56:26 22° 296° (WNW) 14:59:49 145.980
SWISSCUBE 01 Sep 15:02:15 15:05:12 16° 91° (E) 15:08:08 437.505
50 SAT 01 Sep 15:05:49 15:06:48 11° 298° (WNW) 15:07:47 437.505
BEESAT 01 Sep 15:18:17 15:21:51 21° 93° (E) 15:25:25 436.000
ITAMSAT 1 01 Sep 15:21:28 15:26:30 56° 71° (ENE) 15:31:35 435.822/435.867
UKube-1 01 Sep 15:22:12 15:25:20 20° 297° (WNW) 15:28:27 .
O/OREOS (USA 219) 01 Sep 15:35:23 15:38:37 19° 309° (NW) 15:41:54 437.305
Oscar 19 01 Sep 15:36:47 15:40:18 18° 269° (W) 15:43:51 437.125/150
AO-7 01 Sep 15:41:50 15:49:58 59° 64° (ENE) 15:58:05 29.400- 29.500
Cosmos 2499 01 Sep 15:48:08 15:48:49 10° 307° (NW) 15:49:29 435.465 / 435.565
Gurwin Techsat 1B 01 Sep 15:49:57 15:54:31 29° 265° (W) 15:59:07 435.225
TISAT 1 01 Sep 16:08:08 16:11:34 25° 294° (WNW) 16:14:58 437.305
ITUPSAT 1 01 Sep 16:08:35 16:13:20 62° 102° (ESE) 16:18:04 437.325
BEESAT 3 01 Sep 16:21:04 16:23:07 13° 34° (NE) 16:25:08 437.485
MOZHAYETS 4 01 Sep 16:21:30 16:24:01 14° 90° (E) 16:26:32
YUBILEINY 01 Sep 16:22:53 16:29:39 24° 61° (ENE) 16:36:19 435.215
SWISSCUBE 01 Sep 16:38:42 16:43:24 61° 288° (WNW) 16:48:06 437.505
BRITE-PL 01 Sep 16:54:09 16:56:38 14° 55° (NE) 16:59:11 437.365/2234.400
BEESAT 01 Sep 16:55:18 16:59:52 47° 290° (WNW) 17:04:26 436.000
ITAMSAT 1 01 Sep 17:02:33 17:06:20 20° 268° (W) 17:10:08 435.822/435.867
Cosmos 2504 01 Sep 17:03:42 17:06:12 12° 54° (NE) 17:08:42 435.465 / 435.565
KKS-1 01 Sep 17:11:40 17:15:43 33° 97° (E) 17:19:43 437.445
STARS 01 Sep 17:32:37 17:36:22 27° 95° (E) 17:40:04 437.465
HORYU 2 01 Sep 17:33:17 17:37:38 57° 72° (ENE) 17:42:00 437.375
AO-7 01 Sep 17:35:39 17:43:05 35° 263° (W) 17:50:34 29.400- 29.500
GOMX 1 01 Sep 17:39:12 17:42:30 17° 59° (ENE) 17:45:53 467.674
ITUPSAT 1 01 Sep 17:47:33 17:50:41 18° 299° (WNW) 17:53:51 437.325
BEESAT 2 01 Sep 17:50:41 17:54:27 37° 48° (NE) 17:58:13 435.950
CUBESAT XI-V 01 Sep 17:55:47 17:59:07 19° 91° (E) 18:02:25 437.345
MOZHAYETS 4 01 Sep 17:57:04 18:01:37 64° 287° (WNW) 18:06:09
BEESAT 3 01 Sep 17:57:27 18:01:27 79° 55° (NE) 18:05:24 437.485
Cosmos 2491 01 Sep 18:04:38 18:12:37 42° 86° (E) 18:20:40 435.465 / 435.565
PCSat 01 Sep 18:06:35 18:07:03 10° 23° (NNE) 18:07:30 145.827
LilacSat-2 01 Sep 18:13:48 18:16:47 22° 67° (ENE) 18:19:47 437.200
YUBILEINY 01 Sep 18:18:48 18:27:37 84° 263° (W) 18:36:19 435.215
NOAA 15 01 Sep 18:24:20 18:29:22 49° 69° (ENE) 18:34:28 137.62
NOAA 18 01 Sep 18:28:09 18:33:17 40° 66° (ENE) 18:38:24 137.9125
BRITE-PL 01 Sep 18:29:03 18:34:08 82° 74° (ENE) 18:39:38 437.365/2234.400
Cubesat XI-IV 01 Sep 18:31:17 18:36:20 45° 68° (ENE) 18:41:24 437.490
CUTE-I 01 Sep 18:41:10 18:46:21 55° 70° (ENE) 18:51:32 437.470
KKS-1 01 Sep 18:48:25 18:52:10 27° 294° (WNW) 18:55:54 437.445
DOVE 4 01 Sep 18:53:45 18:58:28 34° 67° (ENE) 19:03:14 437.250
Cosmos 2504 01 Sep 18:54:07 19:01:18 64° 78° (ENE) 19:08:25 435.465 / 435.565
CINEMA 3 01 Sep 18:57:24 18:59:05 12° 58° (ENE) 19:00:46 145.822/145.860
STARS 01 Sep 19:08:50 19:12:43 31° 293° (WNW) 19:16:35 437.465
HORYU 2 01 Sep 19:11:53 19:14:33 15° 269° (W) 19:17:12 437.375
AIST 2 01 Sep 19:11:59 19:14:49 17° 37° (NE) 19:17:38 435.215
GOMX 1 01 Sep 19:14:35 19:19:49 82° 256° (WSW) 19:25:21 467.674
AIST 1 01 Sep 19:18:16 19:18:47 10° 63° (ENE) 19:19:18
BEESAT 2 01 Sep 19:28:52 19:32:06 24° 246° (WSW) 19:35:20 435.950
CUBESAT XI-V 01 Sep 19:32:12 19:36:47 51° 288° (WNW) 19:41:20 437.345
HO-68 01 Sep 19:34:20 19:40:42 36° 60° (ENE) 19:47:04 435.675
BEESAT 3 01 Sep 19:37:34 19:38:30 11° 251° (WSW) 19:39:25 437.485
CANX-2 01 Sep 19:41:52 19:45:00 21° 65° (ENE) 19:48:10 2200.000
CUTE 1.7 + AOD 2 01 Sep 19:46:51 19:49:58 21° 65° (ENE) 19:53:06 437.475
PCSat 01 Sep 19:47:15 19:52:12 34° 47° (NE) 19:57:06 145.827
LilacSat-2 01 Sep 19:47:36 19:50:58 29° 264° (W) 19:54:20 437.200
STRAND 1 01 Sep 19:52:58 19:56:09 16° 90° (E) 19:59:19 437.568
Cosmos 2491 01 Sep 20:01:03 20:09:22 47° 288° (WNW) 20:17:47 435.465 / 435.565
NOAA 15 01 Sep 20:05:14 20:09:24 24° 267° (W) 20:13:36 137.62
NOAA 18 01 Sep 20:09:08 20:14:00 31° 264° (W) 20:18:54 137.9125
BRITE-PL 01 Sep 20:10:43 20:13:22 14° 275° (W) 20:16:06 437.365/2234.400
Cubesat XI-IV 01 Sep 20:12:09 20:16:35 26° 266° (W) 20:21:03 437.490
CUBEBUG 2 01 Sep 20:12:41 20:15:38 17° 63° (ENE) 20:18:32 437.445
YUBILEINY 01 Sep 20:17:41 20:22:59 18° 285° (WNW) 20:28:17 435.215
CUTE-I 01 Sep 20:22:43 20:26:44 21° 268° (W) 20:30:46 437.470
CINEMA 3 01 Sep 20:30:27 20:35:27 80° 76° (ENE) 20:40:21 145.822/145.860
DOVE 4 01 Sep 20:31:17 20:36:04 35° 265° (W) 20:40:56 437.250
SEEDS 01 Sep 20:43:12 20:47:16 56° 73° (ENE) 20:51:22 437.485
Cosmos 2504 01 Sep 20:48:34 20:54:00 24° 278° (W) 20:59:27 435.465 / 435.565
AIST 2 01 Sep 20:49:37 20:53:49 79° 237° (WSW) 20:58:00 435.215
AIST 1 01 Sep 20:52:39 20:57:05 87° 261° (W) 21:01:27
Oscar 11 01 Sep 20:55:59 20:59:03 19° 64° (ENE) 21:02:07 145.826/435.025
GOMX 1 01 Sep 20:57:04 20:58:47 11° 276° (W) 21:00:30 467.674
AAUSAT CUBESAT 2 01 Sep 20:58:02 21:01:57 44° 71° (ENE) 21:05:53 437.432
FUNcube-1 01 Sep 21:10:40 21:14:13 25° 67° (ENE) 21:17:44 145.935
